Total_Precipitation_Accumulation
0.00 0.00 0.00 0.00 0.00 0.00 0.01 0.02 0.04 0.03 0.02 0.01 0.01 0.01 0.00 0.00 0.00 0.00 0.00 0.01 0.01 0.01 0.01 0.01 0.01 0.01 0.01 0.01 0.01 0.02 0.03 0.08 0.08 0.05 0.04 0.03 0.05 0.06 0.08 0.09 0.08 0.08 0.10 0.14
0.00 0.00 0.00 0.00 0.00 0.00 0.01 0.01 0.01 0.01 0.01 0.01 0.02 0.02 0.02 0.02 0.02 0.02 0.02 0.02 0.02 0.02 0.02 0.01 0.01 0.01 0.01 0.01 0.01 0.03 0.06 0.12 0.15 0.11 0.05 0.02 0.02 0.03 0.04 0.04 0.04 0.06 0.08 0.09
0.01 0.01 0.01 0.01 0.01 0.01 0.01 0.02 0.03 0.04 0.04 0.04 0.05 0.05 0.07 0.07 0.06 0.05 0.04 0.03 0.02 0.01 0.01 0.00 0.01 0.01 0.02 0.02 0.02 0.08 0.11 0.10 0.16 0.16 0.05 0.02 0.02 0.02 0.04 0.03 0.04 0.07 0.07 0.06
0.01 0.01 0.01 0.01 0.00 0.01 0.01 0.02 0.03 0.05 0.06 0.08 0.09 0.09 0.09 0.10 0.08 0.04 0.02 0.01 0.00 0.00 0.00 0.00 0.00 0.00 0.02 0.04 0.04 0.11 0.14 0.10 0.16 0.16 0.07 0.05 0.05 0.05 0.05 0.05 0.07 0.10 0.10 0.07
0.00 0.00 0.01 0.01 0.02 0.03 0.04 0.05 0.06 0.08 0.11 0.11 0.09 0.06 0.04 0.03 0.02 0.01 0.00 0.00 0.00 0.00 0.00 0.00 0.00 0.01 0.02 0.07 0.09 0.10 0.11 0.10 0.15 0.19 0.13 0.11 0.10 0.10 0.09 0.10 0.12 0.14 0.14 0.11
0.01 0.01 0.02 0.02 0.04 0.06 0.07 0.13 0.12 0.09 0.07 0.04 0.02 0.03 0.01 0.00 0.00 0.00 0.00 0.00 0.00 0.00 0.00 0.01 0.01 0.02 0.03 0.05 0.09 0.10 0.10 0.10 0.15 0.24 0.24 0.20 0.18 0.17 0.15 0.17 0.21 0.22 0.21 0.16
0.02 0.04 0.04 0.02 0.04 0.05 0.12 0.15 0.05 0.02 0.02 0.02 0.02 0.03 0.01 0.00 0.01 0.01 0.00 0.00 0.01 0.01 0.01 0.01 0.03 0.04 0.06 0.07 0.08 0.10 0.12 0.14 0.18 0.26 0.35 0.33 0.30 0.25 0.23 0.23 0.28 0.34 0.36 0.30
0.03 0.07 0.10 0.02 0.02 0.05 0.06 0.04 0.02 0.02 0.02 0.02 0.02 0.01 0.01 0.01 0.01 0.01 0.01 0.01 0.02 0.03 0.04 0.05 0.07 0.10 0.13 0.13 0.14 0.16 0.16 0.18 0.23 0.32 0.34 0.37 0.37 0.36 0.37 0.35 0.39 0.45 0.50 0.47
0.04 0.06 0.02 0.00 0.01 0.02 0.02 0.02 0.02 0.02 0.02 0.02 0.02 0.02 0.02 0.03 0.02 0.02 0.01 0.02 0.03 0.04 0.06 0.09 0.12 0.19 0.23 0.24 0.26 0.25 0.22 0.22 0.26 0.32 0.39 0.49 0.49 0.45 0.47 0.49 0.53 0.59 0.62 0.57
0.03 0.02 0.01 0.01 0.01 0.02 0.01 0.02 0.02 0.01 0.01 0.01 0.03 0.04 0.05 0.05 0.04 0.03 0.02 0.02 0.03 0.05 0.08 0.12 0.20 0.29 0.34 0.35 0.34 0.30 0.25 0.24 0.27 0.32 0.38 0.47 0.57 0.59 0.62 0.64 0.66 0.70 0.70 0.62
0.02 0.01 0.00 0.01 0.01 0.01 0.01 0.01 0.01 0.00 0.01 0.02 0.04 0.05 0.06 0.06 0.06 0.05 0.03 0.02 0.02 0.05 0.08 0.12 0.22 0.35 0.41 0.42 0.40 0.35 0.30 0.25 0.24 0.29 0.34 0.41 0.49 0.57 0.65 0.67 0.67 0.69 0.70 0.62
0.01 0.00 0.00 0.01 0.00 0.00 0.00 0.01 0.01 0.01 0.01 0.02 0.03 0.04 0.04 0.04 0.04 0.03 0.02 0.01 0.02 0.05 0.09 0.12 0.18 0.29 0.38 0.48 0.54 0.50 0.41 0.33 0.27 0.25 0.30 0.36 0.43 0.43 0.45 0.55 0.58 0.60 0.62 0.53
0.00 0.00 0.00 0.00 0.00 0.00 0.00 0.00 0.00 0.00 0.00 0.01 0.02 0.02 0.01 0.01 0.01 0.02 0.02 0.03 0.04 0.07 0.11 0.17 0.23 0.29 0.37 0.49 0.62 0.67 0.59 0.45 0.35 0.29 0.28 0.32 0.40 0.43 0.44 0.47 0.53 0.52 0.51 0.43
0.00 0.00 0.00 0.00 0.00 0.00 0.00 0.00 0.00 0.00 0.00 0.00 0.00 0.00 0.00 0.01 0.01 0.02 0.04 0.07 0.09 0.13 0.19 0.24 0.29 0.32 0.38 0.50 0.63 0.70 0.69 0.60 0.48 0.41 0.35 0.32 0.35 0.42 0.48 0.51 0.51 0.46 0.42 0.38
0.00 0.00 0.00 0.00 0.00 0.00 0.00 0.00 0.00 0.00 0.00 0.00 0.00 0.00 0.01 0.02 0.03 0.06 0.09 0.15 0.22 0.27 0.26 0.27 0.31 0.32 0.40 0.55 0.63 0.63 0.64 0.60 0.52 0.47 0.44 0.40 0.36 0.41 0.47 0.50 0.50 0.47 0.41 0.37
0.00 0.00 0.00 0.00 0.00 0.00 0.00 0.00 0.00 0.00 0.00 0.00 0.00 0.01 0.02 0.03 0.07 0.11 0.17 0.28 0.42 0.42 0.34 0.32 0.32 0.32 0.42 0.59 0.64 0.57 0.50 0.45 0.45 0.46 0.46 0.44 0.42 0.43 0.47 0.48 0.46 0.43 0.39 0.34
0.00 0.00 0.00 0.00 0.00 0.00 0.00 0.00 0.00 0.00 0.00 0.01 0.02 0.03 0.05 0.10 0.16 0.25 0.33 0.39 0.46 0.43 0.36 0.32 0.28 0.29 0.41 0.56 0.63 0.54 0.43 0.35 0.33 0.36 0.40 0.43 0.44 0.45 0.48 0.45 0.39 0.35 0.31 0.27
0.00 0.00 0.00 0.00 0.00 0.00 0.00 0.00 0.00 0.00 0.02 0.04 0.07 0.09 0.14 0.23 0.37 0.51 0.55 0.55 0.53 0.41 0.32 0.28 0.26 0.28 0.38 0.50 0.57 0.53 0.40 0.31 0.27 0.27 0.31 0.37 0.42 0.47 0.47 0.40 0.32 0.27 0.25 0.21
0.00 0.00 0.00 0.00 0.00 0.00 0.00 0.00 0.00 0.02 0.05 0.10 0.16 0.19 0.23 0.32 0.49 0.65 0.68 0.74 0.71 0.53 0.35 0.27 0.26 0.28 0.38 0.47 0.55 0.53 0.40 0.29 0.21 0.19 0.23 0.29 0.37 0.45 0.43 0.34 0.24 0.19 0.18 0.14
0.00 0.00 0.00 0.00 0.00 0.00 0.00 0.01 0.03 0.07 0.13 0.21 0.28 0.32 0.37 0.42 0.56 0.72 0.77 0.78 0.73 0.56 0.37 0.30 0.27 0.25 0.34 0.48 0.55 0.52 0.40 0.28 0.17 0.14 0.17 0.24 0.34 0.42 0.36 0.25 0.17 0.13 0.11 0.08
0.00 0.00 0.00 0.00 0.00 0.00 0.01 0.03 0.08 0.17 0.27 0.31 0.35 0.41 0.46 0.50 0.58 0.74 0.89 0.88 0.68 0.48 0.34 0.29 0.28 0.28 0.34 0.48 0.52 0.46 0.37 0.27 0.17 0.12 0.13 0.21 0.32 0.37 0.27 0.16 0.11 0.09 0.07 0.05
0.00 0.00 0.00 0.00 0.01 0.01 0.03 0.06 0.13 0.26 0.38 0.40 0.37 0.40 0.49 0.57 0.63 0.67 0.73 0.83 0.72 0.52 0.36 0.28 0.28 0.32 0.37 0.47 0.46 0.37 0.32 0.27 0.18 0.12 0.12 0.19 0.27 0.26 0.18 0.11 0.07 0.05 0.04 0.03
0.00 0.00 0.01 0.01 0.02 0.03 0.04 0.08 0.16 0.31 0.47 0.49 0.46 0.44 0.51 0.59 0.68 0.81 0.78 0.70 0.69 0.57 0.39 0.28 0.25 0.31 0.37 0.43 0.41 0.32 0.31 0.26 0.18 0.12 0.11 0.15 0.17 0.15 0.12 0.07 0.04 0.03 0.03 0.03
0.00 0.01 0.01 0.02 0.04 0.06 0.10 0.14 0.20 0.29 0.42 0.41 0.35 0.32 0.41 0.55 0.56 0.58 0.67 0.70 0.65 0.59 0.43 0.29 0.21 0.24 0.30 0.32 0.33 0.31 0.31 0.24 0.15 0.10 0.08 0.08 0.09 0.08 0.07 0.05 0.02 0.02 0.02 0.01
0.01 0.01 0.01 0.04 0.09 0.14 0.19 0.25 0.31 0.38 0.47 0.41 0.30 0.22 0.27 0.41 0.53 0.49 0.50 0.55 0.56 0.51 0.39 0.29 0.24 0.25 0.24 0.27 0.29 0.29 0.25 0.17 0.10 0.06 0.04 0.05 0.05 0.04 0.03 0.03 0.01 0.01 0.01 0.01
0.01 0.01 0.03 0.06 0.11 0.17 0.21 0.32 0.41 0.49 0.61 0.57 0.40 0.23 0.20 0.25 0.33 0.36 0.41 0.46 0.49 0.50 0.37 0.26 0.23 0.25 0.25 0.26 0.25 0.21 0.16 0.10 0.06 0.04 0.04 0.04 0.04 0.03 0.02 0.01 0.01 0.00 0.00 0.00
0.01 0.01 0.03 0.09 0.15 0.16 0.18 0.26 0.36 0.53 0.71 0.71 0.49 0.25 0.18 0.20 0.26 0.30 0.35 0.42 0.48 0.49 0.38 0.26 0.21 0.22 0.22 0.20 0.17 0.12 0.07 0.04 0.03 0.04 0.04 0.03 0.03 0.02 0.01 0.00 0.00 0.00 0.00 0.00